Location: Newark
(49.3500°N, 0.2500°E)
Time: 22:51:45
(UTC+00:00)

N. Korean satellite - Visible Passes

Search period start: 19 September 2019 00:00
Search period end: 29 September 2019 00:00
Orbit: 455 x 509 km, 97.2° (Epoch: 18 September)

Date Brightness Start Highest point End Pass type
(mag) Time Alt. Az. Time Alt. Az. Time Alt. Az.
20 Sep 9.9 05:00:16 10° ENE 05:02:10 14° E 05:04:05 10° SE visible
24 Sep 10.2 04:53:14 10° ENE 04:54:35 12° E 04:55:55 10° ESE visible
27 Sep 9.7 05:09:55 10° NE 05:12:25 18° E 05:14:55 10° SE visible
